sat.trackr.live / text

‹ back to catalog

STARLINK-2063

NORAD 48553 · 2021-041A

PAYLOAD ACTIVE UNKNOWN

§ Identity

Operator
Country
US
Launch date
2021-05-15
Launch site
AFETR
Launch vehicle
Mass (kg)
RCS (m²)

Purposes: comms

External: N2YO · Heavens-Above · Gunter

§ Orbital elements

Epoch: 2026-05-25T05:25:15.779712Z

Period
94.01 min
Inclination
53.1595°
Eccentricity
0.0001497
Mean motion
15.31702361 rev/d
Perigee alt
469.7 km
Apogee alt
471.8 km
Semi-major
6,848.9 km
B*
3.1125e-5
RAAN
130.8311°
Arg perigee
92.8110°
Mean anomaly
267.3063°
Rev number
27,700

§ Raw data

STARLINK-20631 48553U 21041A   26145.22587708  .00000601  00000+0  31125-4 0  99922 48553  53.1595 130.8311 0001497  92.8110 267.3063 15.31702361277006

JSON: /api/v1/satellites/48553 · /tle

For live sub-satellite position, see the globe view (requires WebGL).

§ Visibility from observer

Set your observer location to see the next 7 days of passes ≥ 10°. The values pass through the URL so the page stays shareable.

No JS? Fill the form by hand. The geolocation button needs JavaScript.